Regional Weather Roundup
Issued by NWS

Home | Current Version | Previous Version | Text Only | Print | Product List | Glossary Off
Versions: 1 2 3 4 5 6 7 8 9 10 11 12 13 14 15 16 17 18 19 20 21 22 23 24 25 26 27 28 29 30 31 32 33 34 35 36 37 38 39 40 41 42 43 44 45 46 47 48 49 50

000
ASUS43 KOAX 031310
RWRNE

WEATHER ROUNDUP FOR NEBRASKA
NATIONAL WEATHER SERVICE OMAHA NE
800 AM CDT THU SEP 03 2015

NOTES: SATELLITE DATA IS BEING USED TO AUGMENT CLOUD COVER ABOVE
       12000 FEET.
       "FAIR" INDICATES FEW OR NO CLOUDS BELOW 12,000 FEET WITH NO
       SIGNIFICANT WEATHER AND/OR OBSTRUCTIONS TO VISIBILITY.

  * THESE STATIONS DO NOT REPORT WEATHER SUCH AS RAIN...SNOW OR FOG.

NEZ001>004-019>022-054>056-031400-
NEBRASKA PANHANDLE

CITY           SKY/WX    TMP DP  RH WIND       PRES   REMARKS
SCOTTSBLUFF    PTCLDY    59  52  77 NW3       29.92R
ALLIANCE       PTCLDY    54  51  90 CALM      29.90S
CHADRON        PTCLDY    64  47  53 SW3       29.84R
KIMBALL        PTCLDY    62  45  54 W6        29.97S
SIDNEY         PTCLDY    62  45  53 CALM      29.95R
$$

NEZ057>060-069>072-079>082-031400-
SOUTHWEST NEBRASKA

CITY           SKY/WX    TMP DP  RH WIND       PRES   REMARKS
NORTH PLATTE   CLEAR     61  59  93 CALM      29.85R
IMPERIAL       CLEAR     63  56  78 NW5       29.86S
LEXINGTON      CLEAR     68  61  77 E3        29.83S
MCCOOK         CLEAR     63  57  81 SW6       29.83R
OGALLALA       PTCLDY    58  57  95 CALM      29.88R
$$

NEZ005>010-023>029-035>040-094-031400-
NORTH CENTRAL NEBRASKA

CITY           SKY/WX    TMP DP  RH WIND       PRES   REMARKS
VALENTINE      CLEAR     62  58  86 CALM      29.83R
AINSWORTH      CLEAR     64  61  92 CALM      29.83
BROKEN BOW     CLEAR     63  61  93 CALM      29.84R
O`NEILL        CLEAR     65  64  94 S5        29.83R
ORD            CLEAR     62  60  93 CALM      29.82R
THEDFORD       CLEAR     61  59  95 CALM      29.85S
$$

NEZ041-046>049-061>064-073>077-083>087-031400-
SOUTH CENTRAL NEBRASKA

CITY           SKY/WX    TMP DP  RH WIND       PRES   REMARKS
GRAND ISLAND   SUNNY     72  62  71 S10       29.84R
AURORA         SUNNY     71  65  81 S7        29.84S
HASTINGS       CLEAR     71  62  73 S7        29.84R
HEBRON         SUNNY     74  61  64 S10       29.85S
HOLDREGE       PTCLDY    69  59  71 S9        29.84S
KEARNEY *      PTCLDY    70  59  68 S8        29.84R
YORK           SUNNY     70  64  83 S8        29.85R
$$

NEZ011>018-030>034-042>045-031400-
NORTHEAST NEBRASKA

CITY           SKY/WX    TMP DP  RH WIND       PRES   REMARKS
NORFOLK        SUNNY     67  65  93 E5        29.83R
ALBION         SUNNY     66  64  92 SE3       29.83S
BLAIR          SUNNY     72  66  82 SE7       29.87R
COLUMBUS *     SUNNY     72  63  73 S5        29.84S
FREMONT        SUNNY     73  67  82 SE6       29.85S
TEKAMAH        SUNNY     71  69  93 SE8       29.85R
WAYNE          SUNNY     68  66  93 S5        29.85R
$$

NEZ050>053-065>068-078-088>093-031400-
SOUTHEAST NEBRASKA

CITY           SKY/WX    TMP DP  RH WIND       PRES   REMARKS
LINCOLN        SUNNY     76  65  68 S13       29.84R
OMAHA EPPLEY   MOSUNNY   75  68  78 S9        29.86R
BEATRICE       SUNNY     73  65  74 S10       29.87R
FALLS CITY     PTSUNNY   74  67  78 S10       29.90R
NEBRASKA CITY  MOSUNNY   72  64  76 S12       29.88R
PLATTSMOUTH    MOSUNNY   72  65  80 SE12      29.86S
$$

NEZ044-045-051>053-067-031400-
OMAHA AREA

CITY           SKY/WX    TMP DP  RH WIND       PRES   REMARKS
OMAHA EPPLEY   MOSUNNY   75  68  78 S9        29.86R
BLAIR          SUNNY     72  66  82 SE7       29.87R
FREMONT        SUNNY     73  67  82 SE6       29.85S
MILLARD        SUNNY     73  68  86 SE5       29.86R
OFFUTT AFB     SUNNY     72  68  87 SE7       29.86R
PLATTSMOUTH    MOSUNNY   72  65  80 SE12      29.86S
WAHOO          FAIR      70  67  91 SE5       29.85R
$$




USA.gov is the U.S. government's official web portal to all federal, state and local government web resources and services.